GFSSW_sfc_wetblb_108.txt.gz
Wetbulb
59.12 59.18 59.65 59.42 59.04 58.78 58.49 58.26 58.15 58.21 58.60 58.84 59.39 60.03 60.57 60.66 59.57 59.12 53.82 57.57 59.00 61.66 59.05 55.01 54.48 54.21 54.84 52.87 53.62 51.60 43.60 40.93 42.67 42.90 42.81 48.04 46.31 47.15 47.79 47.26 47.15 50.69 50.43 54.68 58.91
58.99 59.51 59.23 58.97 58.64 58.53 58.49 58.35 58.08 58.16 58.44 58.97 59.30 59.87 60.36 60.36 57.34 53.87 59.01 61.28 61.15 61.22 53.77 51.96 50.64 52.10 48.86 50.11 49.97 46.60 42.81 43.98 45.27 45.21 43.83 46.97 46.33 47.01 44.42 44.89 45.82 48.61 51.16 55.91 59.03
59.54 59.17 58.92 58.55 58.20 58.19 58.26 58.23 57.96 58.27 58.79 59.21 59.65 60.14 60.17 59.19 54.08 53.66 61.82 61.19 61.12 59.45 55.14 53.24 52.35 51.32 47.82 48.90 46.77 45.50 43.12 44.64 45.30 47.08 46.97 46.51 45.07 47.24 44.76 43.86 46.66 47.62 49.58 53.83 56.73
59.16 59.01 58.83 58.61 57.90 57.94 58.05 57.84 58.24 58.46 58.91 59.39 59.88 60.01 59.49 58.04 44.74 55.56 60.77 60.92 60.91 56.37 54.10 51.82 50.64 48.30 46.17 44.96 47.43 42.04 45.44 45.47 47.76 47.06 46.40 45.04 47.37 45.05 46.15 46.74 48.96 48.69 51.48 52.53 55.73
58.72 58.39 58.34 58.22 58.01 57.87 57.97 57.99 58.09 58.70 59.21 59.68 60.20 60.11 57.29 50.98 50.64 56.14 59.49 59.00 55.97 55.08 52.17 50.60 47.91 47.66 44.71 45.06 46.30 42.82 44.36 45.73 46.86 45.78 44.98 46.38 44.41 44.61 45.01 47.77 49.14 49.62 49.95 50.46 54.21
58.41 57.93 57.65 57.59 57.76 57.77 57.91 57.95 58.19 59.01 59.34 59.71 60.52 59.42 53.72 45.45 56.46 57.14 55.36 54.79 54.54 53.50 51.67 51.18 48.97 49.36 46.32 45.42 43.72 45.54 45.72 44.99 46.64 46.28 46.15 44.18 43.72 43.98 45.09 46.74 47.45 48.58 47.80 47.83 50.47
58.23 57.73 57.42 57.29 57.44 57.78 58.15 58.02 58.22 59.02 59.22 59.68 60.29 57.68 51.42 49.50 57.27 56.42 54.83 53.96 54.28 53.60 51.43 52.48 51.27 48.36 47.58 44.84 47.04 45.51 41.87 44.27 44.83 45.36 44.42 45.04 42.05 42.98 45.91 46.51 46.03 45.85 46.75 48.22 48.81
58.07 57.49 57.21 57.24 57.53 57.83 58.07 58.20 58.74 59.00 59.42 59.83 60.24 56.06 48.50 56.21 57.17 54.80 54.62 53.25 54.29 54.33 53.69 52.63 51.89 50.68 48.58 47.74 45.53 41.88 40.61 36.52 43.14 44.90 44.11 42.58 36.90 44.91 45.46 44.69 44.92 45.73 45.35 46.78 48.27
57.66 57.18 57.21 57.28 57.43 57.83 58.35 58.50 58.59 59.18 59.48 59.75 56.13 53.52 47.33 56.37 52.82 54.72 54.24 51.69 52.54 52.79 52.43 52.83 52.86 48.06 46.74 41.51 38.85 39.92 34.07 37.29 40.36 45.03 43.59 41.73 39.12 44.49 45.79 43.46 44.10 45.32 46.25 47.27 47.16
57.48 57.04 57.15 57.55 57.63 57.84 58.02 58.50 59.10 58.27 57.50 56.91 55.23 48.79 49.06 48.49 53.27 53.94 53.62 53.49 51.14 50.26 49.27 48.76 46.43 42.08 41.40 38.71 32.34 35.88 35.22 37.77 36.32 41.63 40.66 40.06 39.54 44.07 45.19 45.46 44.64 44.87 45.29 45.64 47.68
57.42 57.25 57.44 57.79 58.04 58.40 58.04 56.56 52.20 51.24 52.63 48.27 48.62 47.35 49.03 52.12 54.49 51.58 52.78 51.06 50.88 47.97 41.80 45.26 39.49 36.90 39.83 41.38 41.54 38.97 37.69 36.36 37.80 42.37 39.67 39.39 39.71 41.60 43.46 43.54 43.03 43.67 43.99 44.87 46.26
57.51 57.50 57.69 58.13 58.63 59.01 58.60 53.90 52.87 53.06 47.70 51.48 51.35 50.36 51.43 52.44 47.68 49.66 51.85 46.68 46.05 41.27 43.77 40.93 37.10 42.82 44.15 42.81 40.94 39.01 36.42 35.98 39.56 41.85 39.43 38.63 38.61 41.71 43.17 43.45 44.77 44.83 44.33 45.07 45.66
57.48 57.45 57.63 58.04 58.52 58.06 56.55 55.68 57.22 55.89 47.66 49.71 51.22 49.51 49.47 50.29 47.10 47.14 48.89 46.87 43.30 41.15 41.38 38.76 41.00 44.52 43.13 40.09 39.24 37.58 36.21 35.75 36.41 39.19 39.53 37.42 35.13 38.85 42.83 44.32 45.43 46.05 46.77 46.34 46.04
57.38 57.63 57.87 58.29 55.92 56.73 54.47 59.50 58.18 57.57 39.19 42.57 47.85 49.79 49.85 49.76 45.33 51.25 50.10 47.11 43.31 40.34 41.30 40.46 43.70 41.34 39.59 39.61 39.84 35.08 39.61 39.64 37.92 34.60 29.98 37.88 27.49 36.18 41.47 41.33 43.65 44.99 44.92 45.05 45.68
52.03 53.55 57.27 58.35 55.89 53.66 56.34 59.34 59.04 55.96 28.39 44.23 47.27 52.76 50.54 46.30 45.72 46.09 49.27 46.69 41.45 41.31 40.73 37.81 38.93 38.58 38.23 39.38 40.92 37.45 40.08 38.35 37.12 33.78 33.14 32.79 29.87 34.29 38.80 39.02 41.33 44.09 44.27 45.18 46.51
50.48 50.40 52.76 55.15 55.34 55.06 58.12 58.27 54.83 39.19 28.33 41.98 45.25 43.52 43.29 45.45 44.31 45.17 44.63 47.19 45.95 42.28 40.83 39.46 41.79 40.77 39.94 40.70 40.99 41.85 38.82 37.84 35.69 34.03 27.15 33.87 32.92 32.00 36.14 39.68 40.97 42.34 45.72 44.96 44.24
49.98 49.13 50.48 53.94 51.27 55.36 56.44 52.79 39.25 31.27 43.83 40.14 40.24 43.25 42.80 41.09 40.95 42.06 40.37 39.36 37.58 34.15 34.40 38.24 38.47 40.47 42.00 37.58 39.66 38.67 35.59 27.37 26.41 25.08 25.15 34.88 31.95 35.61 41.09 42.75 42.05 43.28 43.54 44.01 43.25
49.49 48.41 48.93 51.59 55.13 53.76 49.35 42.50 30.09 35.61 39.32 45.37 43.68 42.46 39.92 41.64 40.82 40.71 39.00 36.60 40.84 38.66 35.39 33.20 30.74 38.05 40.80 39.57 36.26 36.09 36.41 28.87 22.41 24.01 26.25 30.94 27.86 35.26 42.69 43.83 44.22 44.76 45.56 45.19 42.58
48.50 48.87 48.20 50.37 53.67 52.74 42.78 31.38 32.39 36.09 41.98 42.05 42.72 38.77 38.92 41.13 40.86 39.51 38.21 37.99 40.47 40.92 35.45 34.77 34.47 40.36 41.25 41.42 41.15 36.00 32.56 38.43 31.57 25.19 24.88 30.58 35.15 40.45 42.97 44.01 43.68 44.48 44.89 44.50 44.64
45.05 45.54 45.87 51.34 52.44 49.64 38.62 34.23 34.72 40.47 42.03 42.74 38.03 40.63 36.48 38.70 38.38 38.34 38.38 41.34 40.78 42.79 43.22 39.27 33.57 38.89 38.93 40.87 40.19 38.50 40.88 31.92 31.70 23.55 22.41 28.01 29.71 33.72 39.25 41.11 42.75 42.27 42.08 42.40 43.42
43.96 39.10 45.74 52.32 52.28 44.41 34.61 35.24 37.95 42.91 43.03 39.12 37.81 39.81 39.99 38.28 39.07 37.75 39.07 41.51 42.45 42.11 43.67 39.72 37.42 33.11 37.34 35.58 35.78 35.84 34.74 36.70 36.73 33.24 26.06 23.70 29.15 39.08 39.99 40.78 40.97 41.66 42.78 41.02 41.42
42.20 33.56 46.56 51.79 40.41 40.96 35.55 38.07 40.28 41.65 42.95 40.54 39.13 37.71 39.96 40.31 38.18 38.16 37.95 41.53 43.61 42.14 38.30 40.82 37.08 32.86 33.76 38.67 40.56 39.04 36.40 37.39 30.67 29.08 31.19 29.32 32.02 42.34 41.50 41.67 42.20 40.96 42.16 40.28 40.72
36.40 37.86 47.25 47.44 33.78 35.44 37.64 37.52 38.92 39.82 40.70 39.57 37.91 38.91 39.97 36.98 35.05 38.53 40.02 43.13 43.95 42.59 40.79 41.50 34.51 30.25 32.28 37.51 39.97 37.41 38.46 39.09 38.16 34.96 31.45 26.68 30.38 41.10 41.71 43.06 43.68 42.87 43.39 42.76 39.63
36.20 30.01 39.02 41.51 41.04 37.76 35.77 35.33 34.88 39.66 39.68 42.12 40.81 42.09 39.97 36.60 39.66 37.37 39.17 42.34 44.25 43.66 43.23 43.60 36.46 32.58 31.10 33.37 36.91 33.85 36.64 38.93 37.68 31.76 31.58 32.30 34.38 39.43 41.45 43.13 44.00 44.19 44.13 43.90 42.41
36.54 32.08 35.37 30.72 34.32 37.24 38.06 36.70 34.53 33.63 38.27 39.31 38.76 39.76 38.44 34.99 37.20 37.36 40.29 39.66 41.82 42.52 41.70 39.53 32.46 34.19 35.63 36.80 35.88 35.30 34.40 35.93 35.02 36.50 32.28 33.45 34.46 37.73 40.66 42.11 42.92 43.09 43.53 43.78 44.21
34.31 33.06 34.60 33.44 34.81 35.19 35.92 34.33 34.28 35.65 36.03 34.68 34.96 37.41 38.22 35.57 37.07 35.33 39.34 39.00 37.53 40.22 39.75 40.44 30.65 32.61 28.72 34.38 35.00 31.11 34.03 34.24 34.65 34.95 36.24 36.60 35.67 41.94 42.78 42.43 40.36 41.45 42.14 42.50 43.24
40.63 39.79 35.40 32.94 32.05 32.04 32.42 33.00 34.68 37.09 36.49 36.93 37.11 36.10 35.94 37.39 38.86 39.02 39.50 39.12 38.17 37.35 36.15 34.96 31.93 27.21 22.25 30.63 30.28 24.33 30.31 33.00 33.87 35.60 35.43 31.39 36.45 40.54 38.98 38.24 38.75 39.47 40.60 39.83 39.22

GFSSW_sfc_wetblb_111.txt.gz
Wetbulb
59.48 59.60 59.83 59.87 59.59 59.34 59.12 58.79 58.37 58.14 58.47 58.91 59.35 60.22 60.37 60.69 60.16 57.89 52.97 56.69 57.46 60.21 58.22 51.95 51.53 50.42 50.44 48.95 49.04 46.31 38.72 36.27 38.52 39.22 40.57 43.64 43.31 45.36 45.86 46.51 46.00 48.29 50.98 52.87 59.23
59.50 59.33 59.68 59.59 59.20 58.87 58.73 58.49 58.25 58.20 58.78 58.97 59.24 60.05 60.37 60.24 56.20 52.87 60.04 62.49 61.47 60.14 51.16 49.45 47.49 48.85 44.93 45.70 45.90 42.37 37.17 38.94 40.49 40.30 41.12 43.75 44.09 44.41 42.91 43.53 43.54 46.55 51.18 56.76 61.48
58.10 59.82 59.38 59.12 58.76 58.55 58.50 58.35 58.68 58.74 58.83 58.95 59.52 60.02 60.00 58.56 52.32 51.75 61.02 61.86 60.49 58.30 53.06 50.85 49.75 48.29 44.16 44.48 42.25 41.22 39.18 40.96 42.29 44.45 44.27 43.71 42.69 45.26 43.19 40.52 44.13 46.01 49.90 54.82 57.21
59.40 59.56 59.40 59.18 58.41 58.19 58.28 58.24 58.51 58.77 58.85 59.11 59.68 60.03 59.57 55.40 39.80 53.61 60.75 61.02 60.16 54.03 51.77 49.20 47.57 44.11 41.85 41.21 43.38 38.33 42.29 42.83 45.09 44.84 44.06 42.46 44.02 42.06 43.54 44.73 46.38 46.77 50.79 53.79 54.57
58.89 58.82 58.78 58.71 58.57 58.16 58.22 58.18 58.21 58.74 59.01 59.35 59.98 60.06 54.60 47.55 48.25 54.78 59.60 58.72 53.52 52.51 49.61 47.61 44.60 44.00 40.65 40.95 43.09 39.50 40.78 43.23 44.43 43.76 42.23 44.07 41.59 41.63 42.54 45.22 45.15 48.16 49.91 53.15 53.79
58.55 58.10 58.02 57.89 58.01 58.18 58.22 58.32 58.46 58.76 59.05 59.35 60.28 59.70 49.19 41.67 53.87 54.97 54.17 53.01 52.46 50.72 48.77 47.92 45.67 46.42 42.64 42.36 40.99 42.32 42.56 42.16 43.87 43.50 43.33 41.70 40.78 41.61 43.20 44.36 44.11 46.74 47.34 49.35 52.73
58.42 57.78 57.45 57.45 57.57 57.85 58.18 58.40 58.46 58.72 58.95 59.19 59.98 57.17 47.90 45.51 53.53 53.12 52.90 51.11 51.40 50.71 48.30 49.14 48.10 44.91 43.86 41.75 44.32 42.71 38.45 40.33 41.96 42.76 41.89 42.90 38.72 41.20 43.06 43.75 43.12 44.19 44.44 46.03 48.66
58.21 57.55 57.22 57.18 57.39 57.69 58.00 58.28 58.55 58.63 58.96 59.55 60.06 52.66 43.93 53.33 52.19 52.43 51.40 50.10 50.97 51.07 50.54 49.72 49.29 47.69 45.38 43.97 42.23 38.14 37.37 33.24 39.60 42.35 41.91 40.52 34.24 41.75 43.81 42.61 43.02 42.47 41.65 44.64 45.90
57.67 57.12 57.24 57.18 57.12 57.52 58.14 58.44 58.33 58.92 59.49 59.65 52.57 49.10 42.87 55.07 50.77 51.87 50.69 49.27 49.56 49.47 49.07 51.81 49.11 44.24 43.15 38.22 34.56 35.73 30.49 32.67 37.45 41.73 41.41 38.73 35.22 42.45 44.14 42.01 41.28 41.93 43.00 43.20 43.65
57.42 57.05 57.18 57.26 57.28 57.55 57.90 58.25 58.94 57.97 57.59 56.75 53.93 42.81 45.95 46.13 50.54 51.00 49.62 50.65 47.92 46.77 46.05 45.12 42.50 37.97 36.45 33.76 28.64 31.88 31.16 34.18 34.20 39.62 39.11 36.88 37.30 40.74 42.51 41.65 42.59 42.10 43.19 43.40 43.70
57.43 57.16 57.22 57.30 57.70 58.34 57.21 53.98 49.56 48.21 50.22 44.22 44.52 44.29 47.34 49.78 51.94 48.66 49.79 48.33 47.30 43.39 37.49 40.53 35.89 32.32 35.79 36.99 37.26 35.51 34.17 31.58 34.89 40.58 37.79 36.70 37.03 39.33 41.24 40.50 39.29 40.11 40.67 41.58 42.94
57.37 57.23 57.20 57.58 58.30 58.73 57.28 51.82 49.78 50.17 44.65 50.07 49.04 48.20 49.45 50.25 45.60 46.93 49.10 43.67 42.46 37.35 39.09 37.02 32.92 38.81 40.23 39.39 38.48 36.22 33.92 32.49 35.93 39.14 37.33 35.91 36.49 38.76 40.20 41.10 42.10 43.37 40.29 41.65 41.21
57.21 57.06 57.23 57.80 58.27 57.45 55.11 54.14 55.22 53.42 45.28 47.84 49.15 47.66 47.50 49.03 44.91 44.76 46.62 43.68 39.74 37.73 37.05 34.71 38.07 42.10 40.75 37.30 37.25 34.49 33.53 32.57 33.98 35.64 35.61 34.48 32.46 35.91 38.97 40.51 42.12 42.76 42.91 42.52 42.58
57.24 57.10 57.40 57.95 55.41 56.00 53.09 57.63 55.91 54.76 35.43 39.88 46.00 47.64 47.56 48.04 42.84 48.74 47.82 44.15 40.07 37.59 37.40 36.52 40.69 39.26 37.50 37.10 37.40 32.74 36.82 37.07 35.46 32.55 28.16 34.80 25.24 32.42 38.52 39.45 40.90 42.93 41.66 41.05 42.80
53.79 54.68 57.62 58.17 55.16 53.10 54.56 57.26 57.31 52.03 21.28 40.98 45.38 51.06 47.59 43.47 44.50 44.41 46.85 44.31 38.81 38.72 37.93 35.61 36.72 36.81 35.57 37.27 38.59 35.05 37.73 36.18 35.02 31.69 29.87 29.79 26.58 30.86 34.02 36.37 38.14 40.46 41.32 41.83 42.41
50.97 51.52 52.41 55.90 55.08 55.09 57.34 56.92 52.69 36.34 23.61 40.50 43.91 42.56 41.54 42.77 42.04 43.84 43.91 45.39 43.80 39.09 38.15 36.68 39.45 37.97 37.62 38.20 38.57 39.82 37.15 36.32 33.88 30.99 25.05 29.90 29.87 28.17 32.58 37.21 38.26 38.95 41.21 42.94 41.85
49.48 50.22 50.18 53.25 51.07 55.91 56.13 51.45 36.45 28.28 39.35 38.66 38.96 41.14 40.18 39.29 39.04 39.62 38.77 38.61 36.23 32.44 31.53 35.37 35.70 37.97 39.64 36.17 38.37 36.86 32.57 24.68 24.64 23.53 23.68 30.65 28.02 31.73 37.50 39.66 40.51 42.00 41.76 41.21 41.24
48.94 49.63 49.84 51.36 54.45 53.38 52.03 42.99 30.19 35.59 37.06 42.94 41.51 40.51 37.76 38.87 37.64 38.11 35.61 34.44 38.47 35.62 32.72 30.47 28.99 36.25 39.27 36.87 34.73 34.14 32.83 26.66 20.17 22.54 24.73 29.83 26.82 34.78 40.04 41.76 41.51 42.22 41.67 41.96 41.57
48.50 47.39 47.79 50.35 53.36 51.97 46.55 33.25 33.47 35.97 40.36 40.95 40.39 36.59 36.50 38.34 37.58 36.29 34.07 34.95 38.10 37.61 32.82 31.28 31.18 37.67 38.33 39.67 38.93 33.74 31.49 36.28 29.12 21.06 23.22 27.90 32.08 37.88 40.87 40.97 41.31 41.34 41.58 40.79 41.97
43.70 43.73 44.76 50.91 53.61 48.45 37.87 32.62 35.46 39.72 42.16 42.29 36.95 37.65 34.45 36.47 35.51 36.31 34.93 38.08 38.09 40.14 39.59 37.58 31.42 36.49 36.98 39.34 37.98 36.40 38.72 30.76 29.18 19.67 19.23 25.02 26.67 31.50 36.00 38.58 40.49 40.50 40.25 40.37 41.16
41.72 38.82 44.77 51.21 51.33 43.67 33.79 34.32 37.27 42.34 42.78 38.32 36.39 37.34 38.03 36.37 36.78 35.27 36.34 39.98 40.71 39.78 41.53 38.89 34.56 31.73 36.43 34.51 34.22 34.61 33.71 35.20 34.93 31.26 24.40 21.97 27.20 36.74 39.23 40.11 39.77 40.16 40.51 39.08 39.24
39.10 32.69 44.46 51.03 39.25 39.60 34.66 37.17 40.76 40.96 43.26 40.57 38.84 35.98 36.75 39.06 37.52 36.55 37.07 39.31 41.24 41.26 37.60 39.33 35.45 26.58 31.14 37.04 39.09 37.52 35.81 35.71 28.69 27.51 29.15 27.92 28.15 40.79 39.55 39.80 40.10 39.79 40.66 40.24 39.31
34.23 36.52 45.32 47.84 33.29 34.64 36.85 37.58 38.50 40.28 39.85 39.06 37.68 38.71 39.11 35.86 36.18 39.31 40.18 41.62 43.35 42.24 39.61 40.33 34.25 29.82 30.78 34.75 36.49 34.98 36.76 37.43 36.62 32.62 27.38 25.18 27.93 39.28 39.30 39.76 40.63 40.05 40.00 40.34 40.05
33.18 29.05 37.43 40.95 40.51 36.27 35.05 35.46 34.24 38.93 40.03 41.54 39.68 40.50 37.80 35.48 38.15 35.31 38.78 42.49 43.92 43.65 43.55 42.91 35.97 32.80 29.40 31.84 35.79 32.53 35.10 37.87 36.63 31.04 27.99 30.08 32.25 37.99 38.90 39.46 40.47 39.42 40.24 40.85 40.96
32.74 29.12 33.19 28.84 34.28 36.77 37.94 36.62 34.25 33.00 37.80 41.21 38.86 38.99 37.79 34.16 36.45 36.78 38.45 39.93 42.02 42.89 41.93 40.01 32.18 33.76 36.19 36.40 35.95 35.08 34.92 36.71 35.88 36.40 31.67 32.70 33.77 37.59 40.12 40.92 38.29 38.83 40.20 40.42 39.80
30.24 28.98 31.16 31.30 33.71 34.57 35.41 35.10 33.92 34.76 35.39 33.59 34.77 38.34 39.13 35.23 36.65 35.17 39.05 38.44 37.73 40.41 40.11 39.00 30.86 32.43 30.07 34.38 34.30 31.25 34.36 35.88 36.48 36.70 36.60 36.53 35.55 41.07 40.20 37.01 36.34 38.01 38.94 36.91 36.79
36.82 36.35 30.57 29.94 30.32 31.51 32.60 33.11 35.13 36.25 35.29 36.51 36.23 35.07 35.96 36.93 38.11 37.65 41.47 39.87 40.26 38.23 36.94 34.33 30.42 27.66 25.26 30.90 28.90 20.10 29.86 32.74 33.16 35.18 36.45 32.42 35.93 38.03 33.74 34.84 35.73 36.53 35.81 35.69 36.17

GFSSW_sfc_wetblb_114.txt.gz
Wetbulb
59.30 59.87 60.18 60.32 60.22 60.00 59.64 59.09 58.78 58.27 58.42 58.41 58.85 59.99 60.13 60.60 60.22 56.71 51.42 56.44 56.46 61.89 58.27 50.77 50.10 49.34 48.75 47.41 47.98 44.60 38.67 35.88 37.09 37.65 39.91 42.30 42.74 43.26 44.51 45.61 45.00 46.70 49.78 51.91 59.58
58.88 59.85 59.66 60.09 59.77 59.62 59.36 58.97 58.48 58.37 58.46 58.61 58.73 59.76 60.19 60.15 54.95 52.63 59.97 63.81 62.45 60.67 50.28 48.56 46.95 47.82 44.43 44.44 44.82 41.10 36.08 38.22 38.73 38.75 40.64 42.74 42.33 43.65 42.37 42.37 43.05 46.87 52.11 56.72 60.02
59.27 59.01 59.87 59.74 59.43 59.06 58.93 58.76 58.57 58.33 58.32 58.81 59.23 59.81 59.88 57.90 51.86 50.85 60.86 62.32 61.36 57.79 51.55 49.45 48.57 47.12 42.93 43.13 41.12 39.60 38.40 40.47 40.74 42.30 43.22 42.65 40.98 42.62 41.85 39.34 43.71 45.77 51.47 57.56 57.92
58.59 58.65 59.86 59.68 59.12 58.64 58.55 58.43 58.26 58.23 58.38 58.91 59.48 59.85 59.38 54.62 38.05 53.13 60.80 61.39 60.96 53.44 50.71 48.28 46.40 43.13 40.99 40.27 43.07 38.33 40.96 41.32 43.79 43.55 42.62 41.74 41.85 40.46 41.76 43.07 44.71 46.51 55.62 57.77 58.38
58.26 58.22 59.19 59.20 59.02 58.51 58.45 58.32 58.27 58.31 58.41 58.96 59.57 59.85 53.90 46.33 47.69 53.99 59.62 58.89 52.30 51.66 48.47 46.61 44.35 43.14 40.13 40.85 41.70 38.83 40.62 42.00 43.16 42.07 41.59 42.22 39.73 40.24 41.46 44.11 43.27 46.24 52.55 56.59 57.95
58.39 58.40 58.51 58.43 58.43 58.68 58.39 58.30 58.33 58.43 58.56 58.82 59.77 59.38 47.62 40.66 52.69 54.01 53.74 52.26 51.34 49.83 47.96 46.71 45.30 45.19 42.23 41.09 40.07 41.62 41.67 41.55 42.55 42.12 41.61 39.92 38.30 40.11 41.26 41.58 42.99 46.16 49.49 52.69 54.77
58.36 58.12 57.92 57.92 58.03 58.32 58.49 58.50 58.40 58.52 58.63 58.83 59.60 55.90 47.06 44.28 52.54 52.23 52.24 50.47 50.71 49.86 47.50 48.00 47.36 44.05 43.11 41.39 43.03 41.95 38.05 39.77 40.54 41.17 40.35 40.99 37.40 39.84 40.48 41.99 41.47 42.98 44.70 47.79 51.57
58.20 57.69 57.38 57.47 57.66 57.91 58.18 58.34 58.32 58.41 58.68 59.25 59.58 51.09 41.50 52.17 51.37 50.87 50.39 49.43 50.38 50.53 49.55 48.53 48.73 46.98 43.27 43.36 41.99 37.60 36.48 32.58 37.32 40.51 40.30 38.22 33.37 38.35 41.18 39.84 41.21 40.34 39.98 43.46 46.10
57.75 57.23 57.16 57.22 57.16 57.51 58.02 58.29 58.27 58.67 59.14 59.75 51.17 45.87 40.70 54.45 49.80 51.02 49.39 48.25 48.78 48.64 48.58 51.39 48.28 43.23 42.23 37.49 34.31 34.64 29.57 31.74 35.79 40.32 39.66 37.07 34.12 39.78 40.85 40.59 40.42 39.74 40.81 41.29 42.47
57.39 57.09 57.15 57.20 57.04 57.40 57.88 58.31 58.35 57.91 57.25 56.72 53.33 41.72 44.50 43.89 48.88 49.68 48.87 49.40 46.63 45.74 45.49 44.66 40.70 37.71 35.14 33.24 28.67 31.66 30.47 32.39 32.22 38.35 37.10 35.32 36.35 39.29 40.16 39.31 40.59 40.16 41.14 41.35 42.03
57.27 57.11 57.17 57.18 57.29 58.01 56.93 53.95 47.54 46.56 50.17 42.69 43.62 42.32 44.56 48.76 50.08 47.37 48.62 47.21 46.03 42.33 36.81 39.37 35.44 32.78 35.38 36.30 34.49 34.44 32.90 31.08 33.68 38.57 36.70 35.81 36.22 38.19 39.97 39.47 38.32 38.50 38.55 39.45 41.57
57.33 57.20 57.22 57.31 57.81 58.47 55.63 48.91 47.53 47.77 42.14 49.28 47.76 46.88 48.22 48.65 44.29 45.50 47.91 42.99 41.06 36.17 37.74 36.41 31.96 37.22 38.17 36.93 36.17 33.60 31.59 31.02 33.94 37.33 36.22 33.62 35.48 37.57 38.75 39.14 39.94 40.56 39.39 39.16 38.50
57.40 57.03 57.05 57.19 57.83 56.93 53.78 53.87 54.66 53.08 43.75 46.29 47.85 46.21 46.52 47.64 42.83 43.45 45.96 42.44 37.88 35.81 35.78 33.07 36.16 39.50 38.63 35.47 35.46 33.39 32.28 31.56 32.81 33.95 33.47 32.51 30.84 33.61 37.12 37.98 40.35 40.90 40.82 39.99 40.32
57.34 56.90 56.92 57.57 54.07 53.57 52.08 56.76 56.09 53.91 34.60 39.19 43.87 46.16 46.83 47.05 41.89 47.25 46.33 43.18 37.76 35.46 35.91 34.98 38.42 37.51 35.91 35.42 35.61 31.54 36.15 35.76 34.39 30.99 27.11 32.07 24.44 30.62 35.96 37.43 37.14 39.79 38.04 39.50 40.16
56.94 56.70 57.14 57.43 52.35 51.08 52.56 56.99 56.39 49.46 22.78 39.42 44.13 50.50 46.51 42.35 42.59 43.20 45.84 43.06 37.63 36.81 36.33 34.03 35.96 35.48 34.19 35.55 36.82 33.84 36.39 34.53 32.75 30.12 28.27 27.28 26.16 30.10 31.75 34.53 37.25 39.59 40.38 39.68 40.51
52.41 56.15 56.96 55.70 55.08 53.65 56.53 56.18 51.98 35.41 22.27 39.51 43.41 41.60 40.24 42.02 41.83 43.03 43.14 44.47 42.23 37.89 35.83 35.25 38.05 36.93 37.04 36.44 36.55 38.36 35.58 33.89 31.32 28.75 23.76 28.31 28.48 27.28 31.48 35.00 35.69 38.08 39.14 40.68 40.77
50.75 52.22 52.86 52.86 50.90 55.55 55.91 50.25 35.00 26.52 37.51 37.46 38.27 39.97 38.64 37.50 38.21 39.21 38.64 37.23 35.54 31.37 30.51 34.23 34.36 36.62 38.20 35.16 36.78 34.19 30.51 23.60 22.93 22.18 22.45 27.76 26.33 29.62 35.61 37.02 37.47 39.23 39.43 40.42 40.68
49.81 50.30 50.16 51.19 52.97 56.02 52.00 40.80 29.05 31.91 34.63 42.31 40.37 39.22 35.84 37.87 36.89 37.22 36.44 35.06 36.61 33.64 31.85 30.07 28.18 35.49 37.81 36.01 34.01 32.21 31.72 24.86 18.43 20.74 23.17 28.33 26.07 32.35 36.76 39.54 39.60 40.01 38.54 39.93 40.43
49.48 47.76 47.74 50.47 52.67 55.21 46.24 32.15 32.42 35.66 38.45 39.39 39.53 35.79 35.32 37.48 36.52 35.23 32.65 34.83 37.46 35.92 32.14 29.96 31.04 36.97 37.26 37.51 38.63 33.15 30.04 33.66 27.14 18.12 21.87 26.43 30.93 35.59 38.08 38.99 38.98 39.30 39.44 39.60 40.16
43.77 45.05 45.53 50.76 53.26 50.39 41.29 33.92 35.85 39.66 41.69 40.30 34.83 36.66 32.95 35.12 34.62 34.62 33.37 36.32 36.31 38.65 38.15 35.34 29.12 34.53 36.06 39.40 37.20 35.27 37.38 29.79 27.08 17.12 17.12 23.28 25.63 28.99 34.83 36.86 38.44 38.91 38.07 39.18 39.76
41.65 39.57 45.69 51.06 51.22 40.03 32.33 33.00 37.33 41.60 42.30 39.25 36.29 35.89 35.24 34.62 34.80 34.02 33.71 36.67 39.60 37.69 40.22 38.13 32.78 30.75 34.96 33.31 33.11 33.80 32.55 33.32 33.05 28.35 22.22 19.39 25.34 34.18 37.12 37.79 37.93 38.13 39.07 38.85 38.95
38.81 34.30 44.41 51.07 37.81 38.14 32.70 36.24 40.65 40.86 42.66 39.92 38.36 37.27 37.13 36.73 34.72 33.87 33.95 36.29 40.56 40.26 37.21 37.95 32.98 26.55 30.00 34.65 37.44 35.41 33.87 34.07 27.35 25.98 27.94 26.99 27.08 38.59 38.59 38.76 39.00 38.07 38.94 38.19 38.23
34.38 36.13 44.85 47.69 33.64 34.25 37.02 37.23 39.82 39.42 39.90 38.81 37.59 38.51 37.90 35.98 35.48 36.64 37.29 40.68 40.71 39.84 37.73 39.05 32.04 26.61 28.33 32.94 34.86 33.54 34.89 35.43 34.45 30.95 26.90 25.11 26.33 38.29 37.55 37.66 38.54 38.36 38.77 38.78 37.76
33.02 31.87 36.36 41.00 40.93 36.17 35.02 35.12 34.67 39.76 39.80 40.33 39.06 39.93 37.46 34.38 37.49 36.42 38.83 41.16 42.25 42.40 43.03 42.43 34.55 31.85 28.45 29.94 34.64 32.30 34.50 36.19 35.58 29.31 27.47 29.23 31.54 33.99 36.79 37.32 37.61 37.78 38.32 37.01 36.36
32.97 29.37 33.67 32.34 34.16 37.17 37.40 36.20 34.19 33.58 38.59 40.65 38.36 38.45 36.79 33.60 34.54 35.59 36.77 40.49 41.82 42.17 41.64 39.29 31.85 34.55 34.45 34.94 32.43 31.20 32.82 35.59 34.33 35.11 31.59 32.58 33.25 36.88 38.71 37.87 36.90 37.77 36.60 35.66 36.13
30.31 28.89 31.70 30.39 36.41 35.98 37.03 34.80 34.08 34.68 36.13 35.69 35.94 38.34 38.55 34.90 36.27 35.00 36.06 37.34 37.67 40.24 38.96 38.15 31.04 33.12 30.81 34.81 34.77 32.65 34.28 34.77 35.07 35.29 34.47 36.34 35.83 40.22 37.70 37.66 36.72 35.93 35.75 35.39 35.90
38.22 35.43 31.20 29.68 30.46 33.87 33.03 34.52 35.27 36.27 35.59 37.38 38.39 37.56 36.76 37.66 38.47 37.33 41.97 41.04 40.82 38.53 36.43 34.08 31.30 30.48 26.91 31.80 30.32 23.68 30.44 34.06 35.81 37.44 37.07 33.18 36.42 36.28 34.00 35.12 34.57 33.81 34.29 34.45 34.86

GFSSW_sfc_wetblb_117.txt.gz
Wetbulb
59.68 60.24 60.45 60.76 60.61 60.45 60.13 59.72 59.17 58.72 58.56 58.68 58.65 59.69 59.77 60.28 59.97 55.71 49.48 54.73 55.75 62.09 58.06 50.23 49.26 48.71 47.97 46.36 46.39 42.44 38.62 35.69 37.04 37.66 39.17 41.80 41.55 42.56 43.37 44.21 44.65 45.65 50.60 51.76 59.92
59.65 60.24 60.14 60.31 60.27 60.10 59.82 59.45 59.06 58.60 58.49 58.35 58.41 59.44 59.73 59.77 53.41 51.47 58.88 63.40 63.01 61.34 50.06 47.98 46.26 46.88 43.94 43.83 43.74 39.89 37.14 38.45 39.29 38.52 40.54 42.76 41.72 43.09 42.18 41.27 44.39 47.14 51.27 55.83 60.59
59.60 59.46 60.24 60.22 59.97 59.70 59.52 59.16 58.94 58.40 58.00 58.00 58.61 59.48 59.66 57.50 50.16 48.79 61.56 62.82 62.23 58.37 50.56 49.06 48.21 46.77 42.17 42.26 40.48 40.01 37.72 40.26 39.79 41.27 42.40 42.83 40.31 41.16 41.48 39.19 43.03 45.46 50.40 56.55 57.61
58.91 58.98 59.64 59.92 59.91 59.38 59.10 58.82 58.32 58.06 57.92 58.34 58.87 59.48 59.04 54.06 37.82 52.31 61.04 61.80 61.22 52.26 49.99 47.58 45.84 42.86 40.69 39.90 41.09 36.89 40.12 40.91 42.56 41.96 41.70 41.45 41.43 39.32 40.67 42.21 42.99 45.97 53.75 57.60 58.26
58.35 58.43 58.50 59.26 59.53 59.14 58.79 58.54 58.22 58.19 58.08 58.32 58.95 59.43 53.58 45.53 46.38 53.49 59.44 58.57 51.61 50.76 47.85 46.03 43.94 41.98 40.34 40.45 40.26 37.57 39.49 40.99 41.93 41.17 40.85 41.99 39.26 40.13 40.99 43.18 43.24 46.63 55.40 57.36 58.98
57.90 57.71 57.92 58.66 58.90 59.07 58.71 58.39 58.28 58.31 58.18 58.08 59.12 59.01 47.13 39.25 51.34 53.57 53.06 51.86 50.35 48.89 47.53 45.94 44.94 44.70 41.65 40.40 39.56 40.64 40.39 39.48 40.96 39.85 40.61 39.09 37.45 39.01 39.20 39.99 41.43 48.47 52.91 55.28 57.08
57.81 57.52 58.00 58.33 58.47 58.73 58.87 58.83 58.43 58.34 58.15 58.26 59.02 55.23 45.95 43.69 51.55 51.88 51.75 50.15 50.30 49.18 47.04 47.28 46.44 43.72 42.51 40.32 42.23 40.55 37.46 37.84 38.92 39.75 39.19 39.91 36.07 38.86 39.06 39.96 39.66 42.62 47.63 51.58 54.37
57.93 57.73 57.70 57.89 58.04 58.40 58.54 58.62 58.37 58.08 58.26 58.58 59.28 50.58 41.29 50.74 50.63 49.77 49.76 48.74 49.88 49.78 49.37 48.60 48.30 46.11 42.08 42.05 40.84 36.99 35.43 31.81 35.68 39.06 39.04 37.20 33.19 37.01 40.30 39.23 39.72 38.59 39.33 43.69 48.96
57.57 57.28 57.52 57.49 57.44 57.73 58.15 58.27 58.02 58.39 58.58 59.28 49.73 44.00 38.88 53.60 48.97 50.44 48.53 47.74 48.18 47.96 48.28 50.53 47.46 42.25 41.02 37.31 34.06 34.15 28.68 30.52 34.46 38.97 38.26 35.88 34.10 37.76 39.28 39.50 39.58 38.22 39.49 39.91 41.30
57.34 57.08 57.18 57.16 57.13 57.33 57.75 58.02 57.95 57.30 56.92 56.32 52.71 43.10 43.24 43.93 47.96 48.96 47.77 48.67 45.96 45.52 45.30 44.38 40.31 37.33 34.92 33.44 28.44 30.87 29.47 30.73 30.84 36.66 36.21 34.28 36.08 38.84 39.42 38.48 39.05 38.93 39.21 39.58 40.23
57.29 57.12 57.11 56.98 57.13 57.77 57.47 53.63 47.49 46.14 47.01 41.68 42.96 40.96 42.73 47.61 48.76 46.12 47.94 46.70 44.95 41.93 37.20 38.95 35.88 32.91 34.95 36.20 34.07 34.06 31.85 30.84 32.85 37.30 35.40 34.98 35.62 38.01 39.13 38.08 37.36 38.08 38.03 38.53 39.46
57.10 57.13 57.14 57.09 57.38 58.15 54.02 47.07 45.66 46.78 40.90 47.99 47.71 45.88 47.76 47.74 43.14 44.25 47.00 42.43 40.30 35.75 37.18 35.73 31.94 36.98 37.56 36.10 35.09 33.29 31.62 30.42 33.44 36.25 35.66 32.59 35.03 37.09 37.72 38.68 39.00 38.60 37.92 38.00 37.61
56.99 56.84 56.89 57.07 57.34 55.94 52.33 51.73 53.75 52.46 40.31 42.17 47.28 45.29 46.15 47.16 42.15 42.98 45.27 41.54 37.27 35.08 34.92 32.70 35.25 38.33 37.33 33.80 33.64 31.14 30.90 30.53 31.70 33.35 32.93 31.06 30.52 32.59 35.55 35.97 38.84 38.13 39.03 38.55 39.48
57.21 56.73 56.81 57.15 52.86 51.80 50.11 54.61 56.18 51.06 34.35 38.21 41.88 45.35 46.14 46.58 40.99 45.85 45.27 42.40 36.49 34.76 35.31 34.31 36.67 36.32 34.69 33.75 34.37 30.15 35.26 34.49 33.47 30.44 27.18 30.28 24.57 30.16 33.10 35.47 36.01 37.88 37.05 36.84 38.71
57.13 56.72 56.93 56.31 50.60 49.81 51.09 55.37 55.77 47.57 20.59 38.27 41.76 47.93 45.80 42.11 41.79 42.11 44.81 42.05 36.40 35.21 36.14 33.38 35.06 33.87 33.30 34.89 35.88 32.87 35.42 33.77 31.74 28.66 27.73 26.40 26.33 29.36 30.19 33.64 34.02 37.74 39.20 38.80 38.43
57.10 56.61 56.60 54.43 53.65 52.41 55.14 55.94 49.93 33.92 18.61 35.92 42.23 39.71 39.41 40.77 40.90 41.80 42.16 43.39 40.42 36.64 34.63 34.06 36.95 36.05 35.63 35.35 35.97 37.10 34.25 32.55 30.02 27.38 23.49 27.20 27.64 26.36 30.00 32.33 36.58 37.65 38.15 39.01 38.96
52.49 56.16 55.22 54.10 49.86 55.23 55.75 49.47 33.47 27.04 36.05 36.53 37.15 37.85 38.19 36.70 37.64 38.32 37.60 36.26 33.98 30.28 29.01 33.05 33.01 36.38 37.14 34.39 35.44 32.81 30.71 23.76 23.02 21.47 22.25 26.00 25.01 28.41 32.80 35.93 36.78 38.03 38.19 38.35 38.56
51.88 52.30 52.09 52.63 52.22 55.13 51.72 40.97 28.31 31.00 32.15 40.52 39.05 37.58 34.85 36.78 35.82 36.85 35.62 34.21 37.13 32.64 30.20 28.46 26.83 34.38 36.18 34.83 32.87 30.78 31.45 24.56 18.15 18.65 22.06 27.54 24.87 30.38 35.66 37.62 38.21 38.67 37.94 38.76 38.71
50.20 48.21 48.25 50.52 52.72 53.62 44.77 32.37 31.25 32.63 36.96 38.24 38.77 34.22 33.13 36.02 35.30 34.44 34.15 35.26 37.77 35.29 31.72 28.99 29.61 35.50 35.61 36.12 37.71 31.36 28.00 31.81 25.66 16.47 20.78 25.69 29.19 34.49 36.87 36.61 37.10 38.23 38.17 37.43 37.72
44.55 45.72 45.99 50.54 53.09 50.54 39.83 34.03 34.33 38.63 41.11 40.15 34.96 36.26 31.77 34.26 33.85 33.55 32.87 35.94 35.03 36.99 35.33 34.72 29.25 33.96 35.40 37.88 36.39 34.32 36.18 28.70 25.90 15.99 15.87 22.45 25.02 27.98 33.49 35.32 36.46 36.48 36.36 36.72 37.12
42.41 40.31 46.16 50.93 50.11 43.76 33.95 35.20 36.94 40.65 41.38 39.40 36.63 35.59 35.50 34.69 34.72 33.66 33.31 35.61 38.75 36.51 38.84 36.00 32.99 31.00 34.91 32.54 31.31 32.24 31.03 32.15 32.14 27.77 22.09 18.31 24.18 31.39 35.62 36.33 36.25 36.20 36.34 36.21 36.11
39.39 35.35 45.17 50.82 35.23 33.06 31.99 36.25 40.77 40.48 42.44 39.12 37.89 37.80 36.36 36.20 34.07 33.24 32.96 34.55 38.69 39.47 36.64 36.97 32.15 26.00 29.20 33.26 36.29 33.51 32.49 32.43 27.47 24.20 26.10 25.04 25.95 37.00 37.61 37.36 37.12 36.24 36.37 35.73 36.08
35.74 37.53 45.55 47.45 32.60 32.21 32.44 36.29 40.01 39.12 39.56 38.84 37.53 39.07 38.20 37.17 34.20 34.85 34.84 39.60 40.08 38.74 37.35 37.70 30.83 22.53 25.86 30.93 33.16 32.27 33.14 33.14 32.01 28.78 24.77 21.44 24.81 36.57 36.31 36.60 37.30 36.95 35.86 35.59 35.30
33.55 31.37 36.93 41.26 41.19 35.66 33.18 33.52 34.49 40.83 39.91 40.00 38.92 39.89 37.57 35.73 37.57 36.27 36.78 39.35 40.90 41.29 43.01 41.97 33.58 32.19 27.89 29.31 33.75 32.00 33.27 34.00 34.11 25.36 28.06 27.26 29.01 32.89 34.67 35.82 36.53 36.00 35.34 35.12 35.27
32.79 28.67 33.16 32.38 34.52 36.69 37.08 35.32 33.60 34.07 39.90 40.02 37.12 37.31 36.27 33.56 34.83 35.77 37.41 40.33 40.31 41.64 40.50 39.04 31.42 31.49 31.75 33.09 32.14 31.87 32.52 33.85 32.51 34.17 29.89 32.37 32.88 35.44 36.23 36.54 36.22 35.39 34.64 34.43 34.70
29.19 27.78 31.90 30.59 37.28 36.56 36.94 34.36 34.19 35.21 37.02 36.27 35.58 37.09 37.92 34.67 35.96 34.69 37.08 36.85 38.66 39.65 38.58 37.77 31.79 33.61 31.75 34.81 33.82 30.84 32.29 34.68 35.28 35.08 32.20 33.07 32.29 39.21 39.55 36.43 34.50 33.97 33.77 33.96 34.47
37.42 34.60 31.07 30.14 33.11 34.21 34.31 34.76 35.17 36.65 36.16 38.68 38.55 37.81 36.82 38.24 40.37 39.72 41.08 41.01 40.61 38.21 36.16 34.66 32.58 32.43 29.60 32.70 32.74 30.45 32.58 33.35 34.75 34.53 35.97 32.53 35.46 37.27 35.13 35.47 33.74 33.29 34.53 34.58 34.42